| time (UTC) | temp F | wind direction | speed knots | gust knots | rain 1hr in | rain 24hr in | rain mn in | humidity % | barometer mb |
| 20260506013808 | 78 | 65 | 1.7 | 2.6 | 0.00 | 0.00 | 0.00 | 28 | 913.0 |
| 20260506013308 | 78 | 97 | 7.0 | 7.0 | 0.00 | 0.00 | 0.00 | 27 | 913.0 |
| 20260506012823 | 78 | 112 | 1.7 | 1.7 | 0.00 | 0.00 | 0.00 | 26 | 913.0 |
| 20260506012323 | 79 | 56 | 1.7 | 3.5 | 0.00 | 0.00 | 0.00 | 26 | 913.0 |
| 20260506011809 | 79 | 103 | 0.9 | 2.6 | 0.00 | 0.00 | 0.00 | 26 | 913.0 |
| 20260506011308 | 80 | 52 | 0.9 | 2.6 | 0.00 | 0.00 | 0.00 | 26 | 913.0 |
| 20260506010808 | 81 | 86 | 0.9 | 0.9 | 0.00 | 0.00 | 0.00 | 27 | 913.0 |
| 20260506010308 | 81 | 92 | 2.6 | 2.6 | 0.00 | 0.00 | 0.00 | 26 | 913.0 |
| 20260506005808 | 81 | 69 | 2.6 | 2.6 | 0.00 | 0.00 | 0.00 | 25 | 913.0 |
| 20260506005308 | 81 | 255 | 1.7 | 5.2 | 0.00 | 0.00 | 0.00 | 25 | 912.6 |
| 20260506004808 | 82 | 139 | 2.6 | 3.5 | 0.00 | 0.00 | 0.00 | 24 | 912.6 |
| 20260506004308 | 82 | 23 | 2.6 | 7.0 | 0.00 | 0.00 | 0.00 | 24 | 912.6 |
| 20260506003807 | 81 | 335 | 2.6 | 2.6 | 0.00 | 0.00 | 0.00 | 28 | 912.6 |
| 20260506003308 | 81 | 203 | 0.9 | 6.1 | 0.00 | 0.00 | 0.00 | 26 | 912.6 |
| 20260506002808 | 82 | 331 | 1.7 | 2.6 | 0.00 | 0.00 | 0.00 | 25 | 912.6 |
| 20260506002309 | 82 | 135 | 4.3 | 4.3 | 0.00 | 0.00 | 0.00 | 24 | 912.6 |
| 20260506001823 | 82 | 346 | 4.3 | 4.3 | 0.00 | 0.00 | 0.00 | 24 | 912.6 |
| 20260506001307 | 83 | 46 | 2.6 | 2.6 | 0.00 | 0.00 | 0.00 | 24 | 912.6 |
| 20260506000807 | 83 | 262 | 0.9 | 4.3 | 0.00 | 0.00 | 0.00 | 26 | 912.6 |
| 20260506000309 | 82 | 268 | 2.6 | 3.5 | 0.00 | 0.00 | 0.00 | 26 | 912.6 |
| 20260505235807 | 82 | 332 | 2.6 | 5.2 | 0.00 | 0.00 | 0.00 | 25 | 912.6 |
| 20260505235307 | 81 | 10 | 2.6 | 5.2 | 0.00 | 0.00 | 0.00 | 27 | 912.6 |
| 20260505234807 | 80 | 28 | 1.7 | 2.6 | 0.00 | 0.00 | 0.00 | 29 | 912.6 |
| 20260505234307 | 79 | 332 | 1.7 | 4.3 | 0.00 | 0.00 | 0.00 | 28 | 912.6 |
| 20260505233807 | 80 | 335 | 0.9 | 2.6 | 0.00 | 0.00 | 0.00 | 27 | 912.6 |
| 20260505233307 | 81 | 144 | 1.7 | 4.3 | 0.00 | 0.00 | 0.00 | 27 | 912.6 |
| 20260505232823 | 82 | 109 | 1.7 | 2.6 | 0.00 | 0.00 | 0.00 | 27 | 913.0 |
| 20260505232307 | 81 | 298 | 2.6 | 4.3 | 0.00 | 0.00 | 0.00 | 26 | 912.6 |
| 20260505231809 | 82 | 148 | 2.6 | 2.6 | 0.00 | 0.00 | 0.00 | 28 | 912.6 |
| 20260505231307 | 81 | 356 | 2.6 | 3.5 | 0.00 | 0.00 | 0.00 | 28 | 912.6 |
| 20260505230822 | 81 | 320 | 2.6 | 4.3 | 0.00 | 0.00 | 0.00 | 27 | 912.6 |
| 20260505230307 | 82 | 8 | 1.7 | 3.5 | 0.00 | 0.00 | 0.00 | 27 | 912.6 |
| 20260505225807 | 81 | 358 | 0.9 | 6.1 | 0.00 | 0.00 | 0.00 | 27 | 912.6 |
| 20260505225307 | 83 | 25 | 2.6 | 6.1 | 0.00 | 0.00 | 0.00 | 26 | 913.0 |
| 20260505224807 | 85 | 284 | 4.3 | 5.2 | 0.00 | 0.00 | 0.00 | 26 | 912.6 |
| 20260505224307 | 85 | 328 | 1.7 | 3.5 | 0.00 | 0.00 | 0.00 | 26 | 912.6 |
| 20260505223807 | 83 | 93 | 2.6 | 5.2 | 0.00 | 0.00 | 0.00 | 26 | 912.6 |
| 20260505223307 | 82 | 37 | 0.9 | 4.3 | 0.00 | 0.00 | 0.00 | 28 | 912.6 |
| 20260505222807 | 83 | 76 | 2.6 | 4.3 | 0.00 | 0.00 | 0.00 | 26 | 913.0 |
| 20260505222307 | 86 | 27 | 2.6 | 3.5 | 0.00 | 0.00 | 0.00 | 25 | 913.0 |
| 20260505221807 | 86 | 245 | 1.7 | 4.3 | 0.00 | 0.00 | 0.00 | 24 | 913.0 |
| 20260505221308 | 86 | 18 | 0.9 | 4.3 | 0.00 | 0.00 | 0.00 | 24 | 913.0 |
| 20260505220808 | 85 | 302 | 2.6 | 4.3 | 0.00 | 0.00 | 0.00 | 27 | 913.0 |
| 20260505220321 | 84 | 274 | 0.0 | 4.3 | 0.00 | 0.00 | 0.00 | 25 | 913.0 |
| 20260505215806 | 83 | 246 | 2.6 | 4.3 | 0.00 | 0.00 | 0.00 | 26 | 913.0 |
| 20260505215306 | 83 | 296 | 1.7 | 2.6 | 0.00 | 0.00 | 0.00 | 28 | 913.0 |
| 20260505214807 | 84 | 194 | 0.0 | 4.3 | 0.00 | 0.00 | 0.00 | 25 | 913.0 |
| 20260505214306 | 86 | 345 | 2.6 | 4.3 | 0.00 | 0.00 | 0.00 | 26 | 913.0 |
| 20260505213806 | 86 | 319 | 1.7 | 3.5 | 0.00 | 0.00 | 0.00 | 25 | 913.0 |
| 20260505213307 | 85 | 346 | 1.7 | 1.7 | 0.00 | 0.00 | 0.00 | 27 | 913.0 |
| 20260505212807 | 84 | 318 | 2.6 | 4.3 | 0.00 | 0.00 | 0.00 | 27 | 913.0 |
| 20260505212307 | 84 | 65 | 2.6 | 2.6 | 0.00 | 0.00 | 0.00 | 25 | 913.0 |
| 20260505211806 | 85 | 112 | 1.7 | 3.5 | 0.00 | 0.00 | 0.00 | 26 | 913.0 |
| 20260505211306 | 85 | 185 | 0.9 | 0.9 | 0.00 | 0.00 | 0.00 | 27 | 913.0 |
| 20260505210807 | 85 | 161 | 2.6 | 4.3 | 0.00 | 0.00 | 0.00 | 28 | 913.0 |
| 20260505210322 | 84 | 22 | 0.9 | 5.2 | 0.00 | 0.00 | 0.00 | 26 | 913.0 |
| 20260505205821 | 84 | 18 | 1.7 | 3.5 | 0.00 | 0.00 | 0.00 | 26 | 913.0 |
| 20260505205306 | 84 | 281 | 2.6 | 6.1 | 0.00 | 0.00 | 0.00 | 26 | 913.0 |
| 20260505204806 | 84 | 296 | 2.6 | 3.5 | 0.00 | 0.00 | 0.00 | 27 | 913.0 |
| 20260505204306 | 82 | 291 | 3.5 | 6.1 | 0.00 | 0.00 | 0.00 | 32 | 913.0 |
| 20260505203822 | 83 | 159 | 2.6 | 4.3 | 0.00 | 0.00 | 0.00 | 32 | 913.0 |
| 20260505203306 | 83 | 20 | 2.6 | 2.6 | 0.00 | 0.00 | 0.00 | 30 | 913.3 |
| 20260505202806 | 83 | 238 | 0.9 | 1.7 | 0.00 | 0.00 | 0.00 | 29 | 913.3 |
| 20260505202307 | 83 | 255 | 1.7 | 2.6 | 0.00 | 0.00 | 0.00 | 32 | 913.3 |
| 20260505201821 | 83 | 196 | 0.9 | 2.6 | 0.00 | 0.00 | 0.00 | 31 | 913.3 |
| 20260505201306 | 83 | 316 | 0.9 | 2.6 | 0.00 | 0.00 | 0.00 | 31 | 913.3 |
| 20260505200806 | 83 | 334 | 2.6 | 3.5 | 0.00 | 0.00 | 0.00 | 34 | 913.3 |
| 20260505200321 | 82 | 249 | 1.7 | 1.7 | 0.00 | 0.00 | 0.00 | 33 | 913.3 |
| 20260505195821 | 81 | 22 | 0.9 | 2.6 | 0.00 | 0.00 | 0.00 | 35 | 913.6 |
| 20260505195306 | 81 | 183 | 2.6 | 2.6 | 0.00 | 0.00 | 0.00 | 34 | 913.6 |
| 20260505194806 | 81 | 334 | 2.6 | 2.6 | 0.00 | 0.00 | 0.00 | 33 | 913.6 |
| 20260505194321 | 81 | 222 | 0.9 | 2.6 | 0.00 | 0.00 | 0.00 | 35 | 913.6 |
| 20260505193806 | 81 | 5 | 1.7 | 5.2 | 0.00 | 0.00 | 0.00 | 33 | 913.6 |
| 20260505193306 | 81 | 209 | 1.7 | 1.7 | 0.00 | 0.00 | 0.00 | 35 | 913.6 |
| 20260505192806 | 81 | 295 | 0.0 | 2.6 | 0.00 | 0.00 | 0.00 | 35 | 913.6 |
| 20260505192321 | 80 | 120 | 0.0 | 2.6 | 0.00 | 0.00 | 0.00 | 35 | 913.6 |
| 20260505191806 | 80 | 319 | 2.6 | 3.5 | 0.00 | 0.00 | 0.00 | 34 | 913.6 |
| 20260505191321 | 80 | 274 | 2.6 | 2.6 | 0.00 | 0.00 | 0.00 | 34 | 913.6 |
| 20260505190806 | 80 | 289 | 1.7 | 2.6 | 0.00 | 0.00 | 0.00 | 34 | 914.0 |
| 20260505190321 | 79 | 208 | 0.9 | 3.5 | 0.00 | 0.00 | 0.00 | 34 | 914.0 |
| 20260505185806 | 80 | 302 | 0.9 | 3.5 | 0.00 | 0.00 | 0.00 | 35 | 914.0 |
| 20260505185306 | 80 | 238 | 0.0 | 3.5 | 0.00 | 0.00 | 0.00 | 34 | 914.0 |
| 20260505184806 | 80 | 219 | 1.7 | 2.6 | 0.00 | 0.00 | 0.00 | 35 | 914.0 |
| 20260505184306 | 80 | 173 | 1.7 | 2.6 | 0.00 | 0.00 | 0.00 | 34 | 914.0 |
| 20260505183806 | 79 | 19 | 1.7 | 2.6 | 0.00 | 0.00 | 0.00 | 35 | 914.0 |
| 20260505183306 | 78 | 60 | 1.7 | 2.6 | 0.00 | 0.00 | 0.00 | 36 | 914.0 |
| 20260505182806 | 78 | 287 | 0.0 | 4.3 | 0.00 | 0.00 | 0.00 | 35 | 914.0 |
| 20260505182321 | 78 | 332 | 0.9 | 2.6 | 0.00 | 0.00 | 0.00 | 35 | 913.6 |
| 20260505181806 | 78 | 264 | 0.0 | 2.6 | 0.00 | 0.00 | 0.00 | 37 | 914.0 |
| 20260505181306 | 77 | 105 | 0.0 | 2.6 | 0.00 | 0.00 | 0.00 | 38 | 914.0 |
| 20260505180820 | 77 | 205 | 0.9 | 0.9 | 0.00 | 0.00 | 0.00 | 39 | 914.0 |
| 20260505180305 | 76 | 228 | 1.7 | 2.6 | 0.00 | 0.00 | 0.00 | 37 | 914.0 |
| 20260505175806 | 77 | 181 | 1.7 | 1.7 | 0.00 | 0.00 | 0.00 | 37 | 914.0 |
| 20260505175306 | 76 | 283 | 2.6 | 2.6 | 0.00 | 0.00 | 0.00 | 38 | 914.0 |
| 20260505174821 | 76 | 250 | 0.9 | 2.6 | 0.00 | 0.00 | 0.00 | 37 | 914.0 |
| 20260505174305 | 76 | 279 | 1.7 | 2.6 | 0.00 | 0.00 | 0.00 | 36 | 914.0 |
| 20260505173806 | 76 | 334 | 2.6 | 2.6 | 0.00 | 0.00 | 0.00 | 39 | 914.0 |
| 20260505173306 | 75 | 335 | 2.6 | 2.6 | 0.00 | 0.00 | 0.00 | 36 | 914.0 |
| 20260505172806 | 75 | 222 | 1.7 | 1.7 | 0.00 | 0.00 | 0.00 | 40 | 914.3 |
| 20260505172306 | 75 | 245 | 0.9 | 1.7 | 0.00 | 0.00 | 0.00 | 38 | 914.0 |
| 20260505171821 | 75 | 162 | 0.0 | 1.7 | 0.00 | 0.00 | 0.00 | 38 | 914.0 |
| 20260505171306 | 74 | 314 | 0.0 | 2.6 | 0.00 | 0.00 | 0.00 | 41 | 914.0 |
| 20260505170806 | 73 | 89 | 0.9 | 1.7 | 0.00 | 0.00 | 0.00 | 42 | 914.3 |
| 20260505170305 | 73 | 323 | 1.7 | 3.5 | 0.00 | 0.00 | 0.00 | 41 | 914.3 |
| 20260505165805 | 73 | 28 | 1.7 | 2.6 | 0.00 | 0.00 | 0.00 | 40 | 914.3 |
| 20260505165321 | 72 | 80 | 0.9 | 0.9 | 0.00 | 0.00 | 0.00 | 43 | 914.0 |
| 20260505164807 | 72 | 304 | 0.0 | 0.9 | 0.00 | 0.00 | 0.00 | 42 | 914.3 |
| 20260505164306 | 71 | 318 | 1.7 | 1.7 | 0.00 | 0.00 | 0.00 | 42 | 914.3 |
| 20260505163805 | 70 | 49 | 0.9 | 1.7 | 0.00 | 0.00 | 0.00 | 44 | 914.3 |
| 20260505163306 | 70 | 234 | 0.9 | 1.7 | 0.00 | 0.00 | 0.00 | 45 | 914.3 |
| 20260505162805 | 69 | 355 | 0.0 | 0.0 | 0.00 | 0.00 | 0.00 | 47 | 914.3 |
| 20260505162307 | 68 | 256 | 0.9 | 0.9 | 0.00 | 0.00 | 0.00 | 45 | 914.3 |
| 20260505161805 | 68 | 211 | 0.0 | 1.7 | 0.00 | 0.00 | 0.00 | 42 | 914.3 |
| 20260505161305 | 68 | 45 | 0.0 | 0.9 | 0.00 | 0.00 | 0.00 | 43 | 914.3 |
| 20260505160821 | 67 | 287 | 0.0 | 0.0 | 0.00 | 0.00 | 0.00 | 45 | 914.3 |
| 20260505160306 | 67 | 212 | 1.7 | 1.7 | 0.00 | 0.00 | 0.00 | 46 | 914.3 |
| 20260505153305 | 62 | 232 | 0.0 | 0.0 | 0.00 | 0.00 | 0.00 | 50 | 914.7 |
| 20260505152805 | 62 | 178 | 0.0 | 0.9 | 0.00 | 0.00 | 0.00 | 50 | 914.7 |
| 20260505152305 | 62 | 215 | 0.0 | 0.9 | 0.00 | 0.00 | 0.00 | 49 | 914.7 |
| 20260505151805 | 62 | 182 | 0.0 | 0.9 | 0.00 | 0.00 | 0.00 | 48 | 914.7 |
| 20260505151305 | 62 | 322 | 0.0 | 0.0 | 0.00 | 0.00 | 0.00 | 50 | 914.7 |
| 20260505150805 | 61 | 336 | 0.0 | 0.0 | 0.00 | 0.00 | 0.00 | 49 | 914.7 |
| 20260505150305 | 60 | 267 | 0.0 | 0.9 | 0.00 | 0.00 | 0.00 | 51 | 914.7 |
| 20260505140306 | 49 | 65 | 0.0 | 0.0 | 0.00 | 0.00 | 0.00 | 71 | 914.3 |
| 20260505130304 | 41 | 265 | 0.0 | 0.0 | 0.00 | 0.00 | 0.00 | 88 | 913.6 |
| 20260505124804 | 41 | 270 | 0.0 | 0.0 | 0.00 | 0.00 | 0.00 | 88 | 913.6 |
| 20260505124304 | 41 | 250 | 0.0 | 0.0 | 0.00 | 0.00 | 0.00 | 86 | 913.6 |
| 20260505123805 | 41 | 245 | 0.0 | 0.0 | 0.00 | 0.00 | 0.00 | 85 | 913.6 |
| 20260505123305 | 41 | 287 | 0.0 | 0.0 | 0.00 | 0.00 | 0.00 | 84 | 913.6 |
| 20260505122804 | 41 | 265 | 0.0 | 0.0 | 0.00 | 0.00 | 0.00 | 84 | 913.3 |
| 20260505122305 | 41 | 265 | 0.0 | 0.0 | 0.00 | 0.00 | 0.00 | 83 | 913.3 |
| 20260505121804 | 41 | 265 | 0.0 | 0.0 | 0.00 | 0.00 | 0.00 | 82 | 913.3 |
| 20260505121304 | 41 | 297 | 0.0 | 0.0 | 0.00 | 0.00 | 0.00 | 82 | 913.3 |
| 20260505120804 | 41 | 339 | 0.0 | 0.0 | 0.00 | 0.00 | 0.00 | 82 | 913.3 |
| 20260505120319 | 42 | 266 | 0.0 | 0.0 | 0.00 | 0.00 | 0.00 | 82 | 913.3 |
| 20260505115804 | 42 | 294 | 0.0 | 0.0 | 0.00 | 0.00 | 0.00 | 82 | 913.3 |
| 20260505115305 | 42 | 268 | 0.0 | 0.0 | 0.00 | 0.00 | 0.00 | 82 | 913.3 |
| 20260505114804 | 42 | 251 | 0.0 | 0.0 | 0.00 | 0.00 | 0.00 | 80 | 913.3 |
| 20260505114304 | 42 | 253 | 0.0 | 0.0 | 0.00 | 0.00 | 0.00 | 79 | 913.3 |
| 20260505113804 | 43 | 281 | 0.0 | 0.0 | 0.00 | 0.00 | 0.00 | 78 | 913.3 |
| 20260505113305 | 43 | 257 | 0.0 | 0.0 | 0.00 | 0.00 | 0.00 | 79 | 913.3 |
| 20260505112804 | 43 | 271 | 0.0 | 0.0 | 0.00 | 0.00 | 0.00 | 78 | 913.0 |
| 20260505112305 | 43 | 256 | 0.0 | 0.0 | 0.00 | 0.00 | 0.00 | 76 | 913.0 |
| 20260505111804 | 43 | 261 | 0.0 | 0.0 | 0.00 | 0.00 | 0.00 | 76 | 913.0 |
| 20260505111304 | 43 | 306 | 0.0 | 0.0 | 0.00 | 0.00 | 0.00 | 76 | 913.0 |
| 20260505110804 | 44 | 276 | 0.0 | 0.0 | 0.00 | 0.00 | 0.00 | 77 | 913.0 |
| 20260505110304 | 44 | 275 | 0.0 | 0.0 | 0.00 | 0.00 | 0.00 | 78 | 913.0 |
| 20260505101804 | 44 | 241 | 0.0 | 0.0 | 0.00 | 0.00 | 0.00 | 77 | 912.6 |
| 20260505101303 | 44 | 261 | 0.0 | 0.0 | 0.00 | 0.00 | 0.00 | 74 | 913.0 |
| 20260505100803 | 45 | 273 | 0.0 | 0.0 | 0.00 | 0.00 | 0.00 | 74 | 912.6 |
| 20260505100304 | 44 | 270 | 0.0 | 0.0 | 0.00 | 0.00 | 0.00 | 73 | 912.6 |
| 20260505095803 | 44 | 244 | 0.0 | 0.0 | 0.00 | 0.00 | 0.00 | 71 | 912.6 |
| 20260505095319 | 45 | 254 | 0.0 | 0.0 | 0.00 | 0.00 | 0.00 | 71 | 912.6 |
| 20260505094819 | 45 | 268 | 0.0 | 0.0 | 0.00 | 0.00 | 0.00 | 72 | 912.6 |
| 20260505094303 | 45 | 277 | 0.0 | 0.0 | 0.00 | 0.00 | 0.00 | 73 | 912.6 |
| 20260505093803 | 46 | 258 | 0.0 | 0.0 | 0.00 | 0.00 | 0.00 | 73 | 912.6 |
| 20260505093318 | 46 | 299 | 0.0 | 0.0 | 0.00 | 0.00 | 0.00 | 74 | 912.6 |
| 20260505092804 | 46 | 243 | 0.0 | 0.0 | 0.00 | 0.00 | 0.00 | 73 | 912.6 |
| 20260505092305 | 46 | 255 | 0.0 | 0.0 | 0.00 | 0.00 | 0.00 | 73 | 912.6 |
| 20260505091803 | 46 | 273 | 0.0 | 0.0 | 0.00 | 0.00 | 0.00 | 75 | 912.6 |
| 20260505091305 | 46 | 258 | 0.0 | 0.0 | 0.00 | 0.00 | 0.00 | 72 | 912.6 |
| 20260505090805 | 46 | 262 | 0.0 | 0.0 | 0.00 | 0.00 | 0.00 | 67 | 912.6 |
| 20260505090303 | 46 | 197 | 0.0 | 0.0 | 0.00 | 0.00 | 0.00 | 68 | 912.6 |
| 20260505085805 | 47 | 285 | 0.0 | 0.0 | 0.00 | 0.00 | 0.00 | 69 | 912.6 |
| 20260505085304 | 47 | 277 | 0.0 | 0.0 | 0.00 | 0.00 | 0.00 | 69 | 912.6 |
| 20260505084804 | 47 | 281 | 0.0 | 0.0 | 0.00 | 0.00 | 0.00 | 65 | 912.6 |
| 20260505084303 | 48 | 273 | 0.0 | 0.0 | 0.00 | 0.00 | 0.00 | 63 | 912.6 |
| 20260505083804 | 48 | 302 | 0.0 | 0.0 | 0.00 | 0.00 | 0.00 | 63 | 912.6 |
| 20260505083303 | 49 | 293 | 0.0 | 0.0 | 0.00 | 0.00 | 0.00 | 63 | 912.6 |
| 20260505082803 | 49 | 281 | 0.0 | 0.0 | 0.00 | 0.00 | 0.00 | 63 | 912.6 |
| 20260505082304 | 50 | 286 | 0.0 | 0.0 | 0.00 | 0.00 | 0.00 | 63 | 912.6 |
| 20260505081803 | 50 | 233 | 0.0 | 0.0 | 0.00 | 0.00 | 0.00 | 61 | 912.6 |
| 20260505081303 | 50 | 264 | 0.0 | 1.7 | 0.00 | 0.00 | 0.00 | 58 | 912.6 |
| 20260505080819 | 50 | 267 | 0.0 | 0.0 | 0.00 | 0.00 | 0.00 | 59 | 912.6 |
| 20260505080303 | 50 | 210 | 0.0 | 0.0 | 0.00 | 0.00 | 0.00 | 61 | 912.6 |
| 20260505075803 | 50 | 55 | 0.0 | 0.0 | 0.00 | 0.00 | 0.00 | 61 | 912.3 |
| 20260505075318 | 50 | 228 | 0.0 | 0.0 | 0.00 | 0.00 | 0.00 | 65 | 912.3 |
| 20260505074818 | 49 | 310 | 0.0 | 0.0 | 0.00 | 0.00 | 0.00 | 63 | 912.6 |
| 20260505074303 | 50 | 302 | 0.0 | 0.0 | 0.00 | 0.00 | 0.00 | 64 | 912.6 |
| 20260505073803 | 50 | 274 | 0.0 | 0.0 | 0.00 | 0.00 | 0.00 | 64 | 912.6 |
| 20260505073303 | 51 | 284 | 0.0 | 0.0 | 0.00 | 0.00 | 0.00 | 64 | 912.6 |
| 20260505072803 | 51 | 285 | 0.0 | 0.0 | 0.00 | 0.00 | 0.00 | 64 | 912.6 |
| 20260505072305 | 51 | 234 | 0.0 | 0.0 | 0.00 | 0.00 | 0.00 | 63 | 912.3 |
| 20260505071818 | 52 | 260 | 0.0 | 0.0 | 0.00 | 0.00 | 0.00 | 56 | 912.6 |
| 20260505071303 | 52 | 305 | 0.0 | 0.0 | 0.00 | 0.00 | 0.00 | 56 | 912.3 |
| 20260505070803 | 53 | 268 | 0.0 | 0.0 | 0.00 | 0.00 | 0.00 | 56 | 912.3 |
| 20260505070303 | 53 | 241 | 0.0 | 1.7 | 0.00 | 0.00 | 0.00 | 58 | 912.3 |
| 20260505065803 | 53 | 256 | 0.0 | 0.0 | 0.00 | 0.00 | 0.00 | 53 | 912.3 |
| 20260505065318 | 54 | 334 | 0.0 | 0.0 | 0.00 | 0.00 | 0.00 | 53 | 912.3 |
| 20260505064819 | 55 | 235 | 0.0 | 0.0 | 0.00 | 0.00 | 0.00 | 53 | 912.3 |
| 20260505064303 | 55 | 253 | 0.0 | 0.0 | 0.00 | 0.00 | 0.00 | 54 | 912.3 |
| 20260505063803 | 56 | 252 | 0.0 | 0.0 | 0.00 | 0.00 | 0.00 | 48 | 912.3 |
| 20260505063303 | 57 | 268 | 0.0 | 0.0 | 0.00 | 0.00 | 0.00 | 48 | 912.3 |
| 20260505062803 | 58 | 265 | 0.0 | 0.0 | 0.00 | 0.00 | 0.00 | 47 | 912.3 |
| 20260505062304 | 58 | 253 | 0.0 | 2.6 | 0.00 | 0.00 | 0.00 | 44 | 912.3 |
| 20260505061803 | 59 | 4 | 0.0 | 0.0 | 0.00 | 0.00 | 0.00 | 41 | 912.0 |
| 20260505061318 | 59 | 344 | 0.0 | 0.0 | 0.00 | 0.00 | 0.00 | 41 | 912.3 |
| 20260505060803 | 60 | 266 | 0.0 | 0.9 | 0.00 | 0.00 | 0.00 | 42 | 912.0 |
| 20260505060303 | 60 | 332 | 2.6 | 2.6 | 0.00 | 0.00 | 0.00 | 38 | 912.0 |
| 20260505055803 | 60 | 36 | 0.0 | 2.6 | 0.00 | 0.00 | 0.00 | 39 | 912.3 |
| 20260505055317 | 60 | 339 | 0.0 | 0.0 | 0.00 | 0.00 | 0.00 | 39 | 912.3 |
| 20260505054803 | 60 | 116 | 0.0 | 1.7 | 0.00 | 0.00 | 0.00 | 38 | 912.3 |
| 20260505054302 | 60 | 276 | 0.0 | 3.5 | 0.00 | 0.00 | 0.00 | 39 | 912.0 |
| 20260505053818 | 59 | 321 | 0.9 | 2.6 | 0.00 | 0.00 | 0.00 | 40 | 912.3 |
| 20260505053303 | 59 | 248 | 0.0 | 0.0 | 0.00 | 0.00 | 0.00 | 42 | 912.3 |
| 20260505052803 | 59 | 230 | 0.0 | 0.0 | 0.00 | 0.00 | 0.00 | 46 | 912.3 |
| 20260505052304 | 60 | 276 | 0.0 | 0.0 | 0.00 | 0.00 | 0.00 | 47 | 912.3 |
| 20260505051802 | 61 | 277 | 0.0 | 0.0 | 0.00 | 0.00 | 0.00 | 43 | 912.0 |
| 20260505051302 | 61 | 249 | 1.7 | 1.7 | 0.00 | 0.00 | 0.00 | 41 | 912.0 |
| 20260505050803 | 62 | 249 | 0.0 | 0.0 | 0.00 | 0.00 | 0.00 | 41 | 912.0 |
| 20260505050318 | 63 | 212 | 0.0 | 0.0 | 0.00 | 0.00 | 0.00 | 38 | 912.0 |
| 20260505041302 | 64 | 318 | 0.0 | 2.6 | 0.00 | 0.00 | 0.00 | 37 | 911.3 |
| 20260505040802 | 64 | 310 | 0.0 | 1.7 | 0.00 | 0.00 | 0.00 | 36 | 911.3 |
| 20260505040302 | 64 | 68 | 0.0 | 0.9 | 0.00 | 0.00 | 0.00 | 35 | 911.3 |
| 20260505035802 | 65 | 38 | 0.0 | 0.9 | 0.00 | 0.00 | 0.00 | 35 | 910.9 |
| 20260505035304 | 65 | 346 | 0.0 | 0.9 | 0.00 | 0.00 | 0.00 | 34 | 910.9 |
| 20260505034802 | 66 | 288 | 0.0 | 2.6 | 0.00 | 0.00 | 0.00 | 34 | 910.9 |
| 20260505034302 | 66 | 19 | 2.6 | 2.6 | 0.00 | 0.00 | 0.00 | 33 | 910.6 |
| 20260505033802 | 67 | 205 | 1.7 | 2.6 | 0.00 | 0.00 | 0.00 | 33 | 910.6 |
| 20260505033302 | 67 | 291 | 2.6 | 4.3 | 0.00 | 0.00 | 0.00 | 32 | 910.6 |
| 20260505032802 | 68 | 118 | 0.0 | 4.3 | 0.00 | 0.00 | 0.00 | 32 | 910.6 |
| 20260505032301 | 68 | 221 | 0.9 | 4.3 | 0.00 | 0.00 | 0.00 | 32 | 910.3 |
| 20260505031802 | 69 | 314 | 0.9 | 2.6 | 0.00 | 0.00 | 0.00 | 31 | 910.3 |
| 20260505031317 | 69 | 305 | 1.7 | 5.2 | 0.00 | 0.00 | 0.00 | 31 | 910.3 |
| 20260505030802 | 70 | 340 | 0.0 | 7.8 | 0.00 | 0.00 | 0.00 | 30 | 910.3 |
| 20260505030302 | 70 | 78 | 1.7 | 7.0 | 0.00 | 0.00 | 0.00 | 29 | 909.9 |
| 20260505025802 | 71 | 290 | 7.0 | 7.0 | 0.00 | 0.00 | 0.00 | 29 | 909.9 |
| 20260505025304 | 71 | 341 | 2.6 | 5.2 | 0.00 | 0.00 | 0.00 | 28 | 909.9 |
| 20260505024802 | 71 | 61 | 2.6 | 5.2 | 0.00 | 0.00 | 0.00 | 28 | 909.9 |
| 20260505024302 | 72 | 282 | 0.9 | 0.9 | 0.00 | 0.00 | 0.00 | 28 | 909.6 |
| 20260505023802 | 72 | 304 | 6.1 | 6.1 | 0.00 | 0.00 | 0.00 | 28 | 909.6 |
| 20260505023302 | 73 | 331 | 2.6 | 2.6 | 0.00 | 0.00 | 0.00 | 28 | 909.6 |
| 20260505022802 | 73 | 17 | 0.9 | 3.5 | 0.00 | 0.00 | 0.00 | 28 | 909.6 |
| 20260505022317 | 74 | 347 | 4.3 | 4.3 | 0.00 | 0.00 | 0.00 | 28 | 909.6 |
| 20260505021802 | 74 | 147 | 2.6 | 5.2 | 0.00 | 0.00 | 0.00 | 27 | 909.6 |
| 20260505021301 | 74 | 1 | 2.6 | 7.8 | 0.00 | 0.00 | 0.00 | 27 | 909.6 |
| 20260505020802 | 75 | 359 | 2.6 | 4.3 | 0.00 | 0.00 | 0.00 | 28 | 909.6 |
| 20260505020302 | 75 | 111 | 6.1 | 7.0 | 0.00 | 0.00 | 0.00 | 26 | 909.6 |
| 20260505015801 | 76 | 247 | 6.1 | 6.1 | 0.00 | 0.00 | 0.00 | 27 | 909.6 |
| 20260505015317 | 77 | 280 | 1.7 | 2.6 | 0.00 | 0.00 | 0.00 | 27 | 909.2 |
| 20260505014802 | 77 | 304 | 2.6 | 4.3 | 0.00 | 0.00 | 0.00 | 27 | 909.2 |
| 20260505014302 | 77 | 241 | 2.6 | 4.3 | 0.00 | 0.00 | 0.00 | 27 | 909.2 |